Location: Newark
(41.6500°N, 71.4833°W)
Time: 15:42:25
(UTC+00:00)

Transit 2A Rocket - Pass Details

Date: 04 February 2020
Orbit: 592 x 911 km, 66.7° (Epoch: 16 February)

Event Time Altitude Azimuth Distance (km) Brightness Sun altitude
Rises 17:32:02 0° 316° (NW) 3,110 7.8 31.6°
Reaches altitude 10° 17:34:42 10° 302° (WNW) 2,243 7.3 31.6°
Maximum altitude 17:38:43 24° 250° (WSW) 1,581 7.3 31.4°
Drops below altitude 10° 17:43:00 10° 199° (SSW) 2,399 9.1 31.3°
Sets 17:45:58 0° 186° (S) 3,381 9.5 31.2°
